When you browse on this site, cookies collect data to enhance your experience and personalize the content and advertising you see.
Visit our Privacy Policy to learn more. By continuing to use the site, you agree to this use of cookies and data.
  • In Lithuania
  • List of Countries
  • For 7 days
  • Water Temperature
  • Weather Map
  • Weather Widgets
  • user-avatar
    Login

    Hourly Weather Benguela

    Today, 28 March, Saturday

    Time Temperature Precipitation Wind Pressure Humidity
    00:00 +28°C° 0 mm 3 mps 758 mmHg 77%
    01:00 +28°C° 0 mm 2 mps 758 mmHg 79%
    02:00 +28°C° 0 mm 2 mps 758 mmHg 79%
    03:00 +27°C° 0 mm 2 mps 757 mmHg 79%
    04:00 +27°C° 0 mm 2 mps 757 mmHg 80%
    05:00 +28°C° 0 mm 2 mps 757 mmHg 78%
    06:00 +28°C° 0 mm 2 mps 758 mmHg 77%
    07:00 +28°C° 0 mm 1 mps 759 mmHg 75%
    08:00 +30°C° 0 mm 1 mps 759 mmHg 68%
    09:00 +32°C° 0 mm 1 mps 759 mmHg 60%
    10:00 +34°C° 0 mm 1 mps 759 mmHg 53%
    11:00 +35°C° 0 mm 2 mps 758 mmHg 54%
    12:00 +35°C° 0 mm 3 mps 758 mmHg 55%
    13:00 +35°C° 0 mm 4 mps 757 mmHg 56%
    14:00 +35°C° 0 mm 4 mps 757 mmHg 59%
    15:00 +34°C° 0 mm 4 mps 756 mmHg 61%
    16:00 +33°C° 0 mm 4 mps 755 mmHg 64%
    17:00 +32°C° 0 mm 4 mps 756 mmHg 71%
    18:00 +29°C° 0 mm 3 mps 757 mmHg 77%
    19:00 +28°C° 0 mm 3 mps 758 mmHg 84%
    20:00 +28°C° 0 mm 3 mps 758 mmHg 85%
    21:00 +28°C° 0 mm 2 mps 758 mmHg 86%
    22:00 +27°C° 0 mm 2 mps 759 mmHg 87%
    23:00 +27°C° 0 mm 2 mps 759 mmHg 87%

    Tomorrow, 30 March, Monday

    Time Temperature Precipitation Wind Pressure Humidity
    00:00 +26°C° 0 mm 2 mps 757 mmHg 88%
    01:00 +26°C° 0 mm 1 mps 757 mmHg 88%
    02:00 +26°C° 0 mm 1 mps 757 mmHg 88%
    03:00 +26°C° 0 mm 1 mps 756 mmHg 88%
    04:00 +26°C° 0 mm 2 mps 756 mmHg 88%
    05:00 +26°C° 0 mm 1 mps 756 mmHg 85%
    06:00 +27°C° 0 mm 1 mps 756 mmHg 83%
    07:00 +27°C° 0 mm 1 mps 757 mmHg 81%
    08:00 +29°C° 0 mm 1 mps 757 mmHg 73%
    09:00 +31°C° 0 mm 1 mps 757 mmHg 65%
    10:00 +34°C° 0 mm 2 mps 757 mmHg 57%
    11:00 +34°C° 0 mm 2 mps 757 mmHg 55%
    12:00 +35°C° 0 mm 3 mps 756 mmHg 53%
    13:00 +36°C° 0 mm 3 mps 755 mmHg 51%
    14:00 +35°C° 0 mm 3 mps 755 mmHg 55%
    15:00 +34°C° 0 mm 3 mps 754 mmHg 58%
    16:00 +33°C° 0 mm 3 mps 754 mmHg 62%
    17:00 +31°C° 0 mm 3 mps 755 mmHg 69%
    18:00 +29°C° 0 mm 2 mps 755 mmHg 76%
    19:00 +28°C° 0 mm 2 mps 756 mmHg 84%
    20:00 +27°C° 0 mm 2 mps 756 mmHg 86%
    21:00 +27°C° 0 mm 2 mps 757 mmHg 88%
    22:00 +26°C° 0 mm 2 mps 757 mmHg 90%
    23:00 +26°C° 0 mm 2 mps 757 mmHg 90%

    Day after tomorrow, 31 March, Tuesday

    Time Temperature Precipitation Wind Pressure Humidity
    00:00 +26°C° 0 mm 2 mps 757 mmHg 90%
    01:00 +26°C° 0 mm 2 mps 756 mmHg 90%
    02:00 +26°C° 0 mm 2 mps 756 mmHg 90%
    03:00 +26°C° 0 mm 1 mps 756 mmHg 89%
    04:00 +26°C° 0 mm 1 mps 756 mmHg 89%
    05:00 +26°C° 0 mm 1 mps 756 mmHg 86%
    06:00 +27°C° 0 mm 1 mps 756 mmHg 82%
    07:00 +27°C° 0 mm 1 mps 757 mmHg 79%
    08:00 +30°C° 0 mm 1 mps 757 mmHg 69%
    09:00 +32°C° 0 mm 1 mps 757 mmHg 59%
    10:00 +35°C° 0 mm 1 mps 757 mmHg 48%
    11:00 +36°C° 0 mm 2 mps 757 mmHg 49%
    12:00 +36°C° 0 mm 3 mps 756 mmHg 50%
    13:00 +37°C° 0 mm 4 mps 755 mmHg 50%
    14:00 +36°C° 0 mm 4 mps 755 mmHg 54%
    15:00 +35°C° 0 mm 4 mps 754 mmHg 57%
    16:00 +34°C° 0 mm 3 mps 754 mmHg 61%
    17:00 +31°C° 0 mm 3 mps 755 mmHg 68%
    18:00 +30°C° 0 mm 3 mps 755 mmHg 75%
    19:00 +28°C° 0 mm 2 mps 756 mmHg 82%
    20:00 +28°C° 0 mm 2 mps 756 mmHg 83%
    21:00 +27°C° 0 mm 2 mps 757 mmHg 85%
    22:00 +27°C° 0 mm 2 mps 757 mmHg 86%
    23:00 +27°C° 0 mm 2 mps 757 mmHg 86%

    31 March, Tuesday

    Time Temperature Precipitation Wind Pressure Humidity
    00:00 +26°C° 0 mm 2 mps 757 mmHg 90%
    01:00 +26°C° 0 mm 2 mps 756 mmHg 90%
    02:00 +26°C° 0 mm 2 mps 756 mmHg 90%
    03:00 +26°C° 0 mm 1 mps 756 mmHg 89%
    04:00 +26°C° 0 mm 1 mps 756 mmHg 89%
    05:00 +26°C° 0 mm 1 mps 756 mmHg 86%
    06:00 +27°C° 0 mm 1 mps 756 mmHg 82%
    07:00 +27°C° 0 mm 1 mps 757 mmHg 79%
    08:00 +30°C° 0 mm 1 mps 757 mmHg 69%
    09:00 +32°C° 0 mm 1 mps 757 mmHg 59%
    10:00 +35°C° 0 mm 1 mps 757 mmHg 48%
    11:00 +36°C° 0 mm 2 mps 757 mmHg 49%
    12:00 +36°C° 0 mm 3 mps 756 mmHg 50%
    13:00 +37°C° 0 mm 4 mps 755 mmHg 50%
    14:00 +36°C° 0 mm 4 mps 755 mmHg 54%
    15:00 +35°C° 0 mm 4 mps 754 mmHg 57%
    16:00 +34°C° 0 mm 3 mps 754 mmHg 61%
    17:00 +31°C° 0 mm 3 mps 755 mmHg 68%
    18:00 +30°C° 0 mm 3 mps 755 mmHg 75%
    19:00 +28°C° 0 mm 2 mps 756 mmHg 82%
    20:00 +28°C° 0 mm 2 mps 756 mmHg 83%
    21:00 +27°C° 0 mm 2 mps 757 mmHg 85%
    22:00 +27°C° 0 mm 2 mps 757 mmHg 86%
    23:00 +27°C° 0 mm 2 mps 757 mmHg 86%

    1 April, Wednesday

    Time Temperature Precipitation Wind Pressure Humidity
    00:00 +27°C° 0 mm 2 mps 757 mmHg 87%
    01:00 +27°C° 0 mm 2 mps 757 mmHg 87%
    02:00 +26°C° 0 mm 1 mps 757 mmHg 87%
    03:00 +26°C° 0 mm 1 mps 757 mmHg 87%
    04:00 +26°C° 0 mm 1 mps 757 mmHg 87%
    05:00 +27°C° 0 mm 1 mps 757 mmHg 85%
    06:00 +25°C° 0 mm 0 mps 757 mmHg 82%
    07:00 +26°C° 0 mm 0 mps 758 mmHg 80%
    08:00 +30°C° 0 mm 1 mps 758 mmHg 74%
    09:00 +31°C° 0 mm 1 mps 758 mmHg 67%
    10:00 +34°C° 0 mm 2 mps 758 mmHg 60%
    11:00 +34°C° 0 mm 3 mps 757 mmHg 61%
    12:00 +35°C° 0 mm 3 mps 757 mmHg 61%
    13:00 +35°C° 0 mm 4 mps 756 mmHg 62%
    14:00 +34°C° 0 mm 4 mps 756 mmHg 64%
    15:00 +34°C° 0 mm 3 mps 755 mmHg 65%
    16:00 +33°C° 0 mm 3 mps 755 mmHg 67%
    17:00 +31°C° 0 mm 3 mps 755 mmHg 72%
    18:00 +29°C° 0 mm 3 mps 756 mmHg 77%
    19:00 +28°C° 0 mm 2 mps 756 mmHg 83%
    20:00 +28°C° 0 mm 2 mps 757 mmHg 84%
    21:00 +27°C° 0 mm 2 mps 757 mmHg 85%
    22:00 +27°C° 0 mm 2 mps 757 mmHg 86%
    23:00 +27°C° 0 mm 2 mps 757 mmHg 86%

    2 April, Thursday

    Time Temperature Precipitation Wind Pressure Humidity
    00:00 +27°C° 0 mm 1 mps 757 mmHg 87%
    01:00 +27°C° 0 mm 1 mps 757 mmHg 87%
    02:00 +27°C° 0 mm 1 mps 757 mmHg 87%
    03:00 +27°C° 0 mm 1 mps 756 mmHg 87%
    04:00 +26°C° 0 mm 1 mps 756 mmHg 87%
    05:00 +27°C° 0 mm 1 mps 756 mmHg 86%
    06:00 +27°C° 0 mm 1 mps 757 mmHg 85%
    07:00 +27°C° 0 mm 1 mps 757 mmHg 84%
    08:00 +29°C° 0 mm 1 mps 757 mmHg 77%
    09:00 +31°C° 0 mm 1 mps 757 mmHg 70%
    10:00 +33°C° 0 mm 1 mps 757 mmHg 62%
    11:00 +35°C° 0 mm 2 mps 757 mmHg 61%
    12:00 +36°C° 0 mm 3 mps 756 mmHg 60%
    13:00 +36°C° 0 mm 4 mps 755 mmHg 59%
    14:00 +35°C° 0.1 mm 4 mps 755 mmHg 62%
    15:00 +34°C° 0.1 mm 4 mps 755 mmHg 65%
    16:00 +33°C° 0.1 mm 3 mps 755 mmHg 69%
    17:00 +31°C° 0 mm 3 mps 755 mmHg 73%
    18:00 +29°C° 0 mm 2 mps 756 mmHg 78%
    19:00 +28°C° 0 mm 2 mps 756 mmHg 82%
    20:00 +28°C° 0 mm 2 mps 756 mmHg 83%
    21:00 +28°C° 0 mm 1 mps 757 mmHg 85%
    22:00 +27°C° 0 mm 1 mps 757 mmHg 86%
    23:00 +27°C° 0 mm 1 mps 757 mmHg 87%
    Show more